AAL1140 KMIA-KORD

Flight info

Callsign AAL1140
Flight time 2h 45m
Altitude 36000
Route HURCN4 KPASA Q118 KAILL/N0463F370 Q118 VOSTK/N0461F380 Q118 HEVAN BONNT WATSN4
Aircraft B38M/M-SDE1FGHILORVWXY/HB1

Departure

Time 2026-05-06 20:37
Airport Miami International Airport (KMIA)

Arrival

Time 2026-05-06 23:22
Airport Chicago O'Hare International Airport (KORD)
Time Latitude Longitude Altitude Speed Heading
2026-05-06 20:18 25.79831 -80.28269 17 ft 0 kts 176°
2026-05-06 20:25 25.79834 -80.28270 17 ft 2 kts 176°
2026-05-06 20:25 25.79860 -80.28271 19 ft 3 kts 177°
2026-05-06 20:25 25.79880 -80.28270 19 ft 4 kts 205°
2026-05-06 20:25 25.79890 -80.28254 18 ft 3 kts 267°
2026-05-06 20:26 25.79891 -80.28229 19 ft 1 kts 267°
2026-05-06 20:29 25.79891 -80.28231 19 ft 1 kts 267°
2026-05-06 20:29 25.79890 -80.28250 19 ft 4 kts 267°
2026-05-06 20:29 25.79898 -80.28297 19 ft 9 kts 300°
2026-05-06 20:30 25.79966 -80.28320 17 ft 12 kts 358°
2026-05-06 20:30 25.80029 -80.28474 17 ft 16 kts 267°
2026-05-06 20:30 25.80024 -80.28622 18 ft 22 kts 268°
2026-05-06 20:31 25.80016 -80.28797 19 ft 23 kts 267°
2026-05-06 20:31 25.80010 -80.28973 18 ft 23 kts 268°
2026-05-06 20:31 25.80002 -80.29158 19 ft 25 kts 266°
2026-05-06 20:31 25.79993 -80.29342 18 ft 17 kts 267°
2026-05-06 20:32 25.79987 -80.29485 17 ft 20 kts 267°
2026-05-06 20:32 25.79981 -80.29643 17 ft 21 kts 267°
2026-05-06 20:32 25.79975 -80.29800 16 ft 17 kts 267°
2026-05-06 20:32 25.79972 -80.29864 16 ft 0 kts 267°
2026-05-06 20:33 25.79972 -80.29869 16 ft 2 kts 267°
2026-05-06 20:33 25.79971 -80.29886 16 ft 3 kts 267°
2026-05-06 20:33 25.79970 -80.29915 16 ft 5 kts 267°
2026-05-06 20:33 25.79974 -80.29955 16 ft 0 kts 287°
2026-05-06 20:34 25.79977 -80.29968 16 ft 5 kts 287°
2026-05-06 20:34 25.79997 -80.30040 16 ft 14 kts 287°
2026-05-06 20:35 25.80047 -80.30131 17 ft 8 kts 340°
2026-05-06 20:35 25.80071 -80.30107 16 ft 6 kts 85°
2026-05-06 20:35 25.80072 -80.30099 16 ft 0 kts 86°
2026-05-06 20:36 25.80072 -80.30097 16 ft 2 kts 86°
2026-05-06 20:37 25.80082 -80.29865 15 ft 67 kts 87°
2026-05-06 20:37 25.80114 -80.29079 20 ft 135 kts 88°
2026-05-06 20:37 25.80167 -80.27827 102 ft 184 kts 88°
2026-05-06 20:37 25.80228 -80.26345 809 ft 194 kts 90°
2026-05-06 20:38 25.80285 -80.24882 1821 ft 192 kts 88°
2026-05-06 20:38 25.80366 -80.23429 2408 ft 209 kts 87°
2026-05-06 20:38 25.80445 -80.21726 2912 ft 234 kts 88°
2026-05-06 20:38 25.80522 -80.19851 3558 ft 248 kts 85°
2026-05-06 20:39 25.81005 -80.17979 4419 ft 262 kts 58°
2026-05-06 20:39 25.82314 -80.16516 5113 ft 275 kts 27°
2026-05-06 20:39 25.84139 -80.15957 6139 ft 275 kts
2026-05-06 20:39 25.86074 -80.15885 7040 ft 280 kts
2026-05-06 20:40 25.88016 -80.15798 8044 ft 279 kts
2026-05-06 20:40 25.89955 -80.15952 8975 ft 282 kts 345°
2026-05-06 20:40 25.91830 -80.16612 9907 ft 285 kts 344°
2026-05-06 20:40 25.93758 -80.17265 10545 ft 297 kts 344°
2026-05-06 20:41 25.95800 -80.17965 10919 ft 317 kts 344°
2026-05-06 20:41 25.97862 -80.19029 11214 ft 339 kts 325°
2026-05-06 20:41 25.99503 -80.20987 11621 ft 357 kts 303°
2026-05-06 20:41 26.00511 -80.23571 12159 ft 368 kts 294°
2026-05-06 20:42 26.01438 -80.26189 12839 ft 371 kts 295°
2026-05-06 20:42 26.02402 -80.28872 13400 ft 377 kts 295°
2026-05-06 20:42 26.03376 -80.31575 13551 ft 377 kts 295°
2026-05-06 20:42 26.04350 -80.34277 13589 ft 377 kts 295°
2026-05-06 20:43 26.05332 -80.36997 13997 ft 378 kts 295°
2026-05-06 20:43 26.06309 -80.39711 14630 ft 380 kts 295°
2026-05-06 20:43 26.07295 -80.42448 15206 ft 382 kts 295°
2026-05-06 20:43 26.08286 -80.45200 15795 ft 383 kts 295°
2026-05-06 20:44 26.09278 -80.47957 16350 ft 385 kts 294°
2026-05-06 20:44 26.10276 -80.50734 16906 ft 387 kts 294°
2026-05-06 20:44 26.11278 -80.53523 17446 ft 389 kts 294°
2026-05-06 20:44 26.12385 -80.56267 17937 ft 389 kts 303°
2026-05-06 20:45 26.14106 -80.58576 18428 ft 388 kts 320°
2026-05-06 20:45 26.16353 -80.60236 18831 ft 390 kts 333°
2026-05-06 20:45 26.18799 -80.61549 19240 ft 392 kts 335°
2026-05-06 20:45 26.21284 -80.62816 19664 ft 393 kts 335°
2026-05-06 20:46 26.23757 -80.64040 20075 ft 394 kts 335°
2026-05-06 20:46 26.26274 -80.65267 20498 ft 396 kts 335°
2026-05-06 20:46 26.28812 -80.66493 20911 ft 397 kts 335°
2026-05-06 20:46 26.31353 -80.67714 21310 ft 399 kts 335°
2026-05-06 20:47 26.33909 -80.68941 21710 ft 400 kts 335°
2026-05-06 20:47 26.36467 -80.70169 22110 ft 402 kts 335°
2026-05-06 20:47 26.39019 -80.71462 22471 ft 402 kts 328°
2026-05-06 20:47 26.41212 -80.73380 22856 ft 402 kts 314°
2026-05-06 20:48 26.43165 -80.75615 23194 ft 404 kts 314°
2026-05-06 20:48 26.45116 -80.77899 23557 ft 406 kts 313°
2026-05-06 20:48 26.47052 -80.80199 23870 ft 407 kts 313°
2026-05-06 20:48 26.48961 -80.82492 24162 ft 409 kts 313°
2026-05-06 20:49 26.50961 -80.84817 24434 ft 411 kts 318°
2026-05-06 20:49 26.53171 -80.86848 24722 ft 413 kts 320°
2026-05-06 20:49 26.55376 -80.88861 24991 ft 415 kts 320°
2026-05-06 20:49 26.57618 -80.90901 25271 ft 417 kts 320°
2026-05-06 20:50 26.59874 -80.92951 25575 ft 418 kts 319°
2026-05-06 20:50 26.62134 -80.95007 25872 ft 420 kts 319°
2026-05-06 20:50 26.64406 -80.97074 26152 ft 422 kts 319°
2026-05-06 20:50 26.66686 -80.99149 26425 ft 424 kts 319°
2026-05-06 20:51 26.68976 -81.01234 26698 ft 425 kts 319°
2026-05-06 20:51 26.71276 -81.03330 26973 ft 427 kts 319°
2026-05-06 20:51 26.73584 -81.05433 27242 ft 429 kts 319°
2026-05-06 20:51 26.75903 -81.07549 27504 ft 431 kts 319°
2026-05-06 20:52 26.78237 -81.09679 27760 ft 433 kts 319°
2026-05-06 20:52 26.80575 -81.11814 28025 ft 435 kts 319°
2026-05-06 20:52 26.82926 -81.13962 28283 ft 437 kts 319°
2026-05-06 20:52 26.85260 -81.16095 28537 ft 439 kts 319°
2026-05-06 20:53 26.87629 -81.18262 28787 ft 440 kts 319°
2026-05-06 20:53 26.90013 -81.20443 29052 ft 442 kts 318°
2026-05-06 20:53 26.92395 -81.22624 29345 ft 443 kts 318°
2026-05-06 20:53 26.94781 -81.24810 29683 ft 443 kts 318°
2026-05-06 20:54 26.97162 -81.26993 30047 ft 442 kts 318°
2026-05-06 20:54 26.99543 -81.29177 30354 ft 441 kts 318°
2026-05-06 20:54 27.01917 -81.31355 30650 ft 441 kts 318°
2026-05-06 20:54 27.04308 -81.33507 30960 ft 441 kts 322°
2026-05-06 20:55 27.06965 -81.35254 31306 ft 442 kts 327°
2026-05-06 20:55 27.09636 -81.36954 31614 ft 441 kts 327°
2026-05-06 20:55 27.12306 -81.38655 31955 ft 440 kts 327°
2026-05-06 20:55 27.14951 -81.40337 32326 ft 438 kts 327°
2026-05-06 20:56 27.17601 -81.42021 32696 ft 437 kts 327°
2026-05-06 20:56 27.20241 -81.43699 33047 ft 435 kts 327°
2026-05-06 20:56 27.22870 -81.45371 33429 ft 433 kts 327°
2026-05-06 20:56 27.25487 -81.47036 33822 ft 431 kts 327°
2026-05-06 20:57 27.28095 -81.48696 34162 ft 430 kts 327°
2026-05-06 20:57 27.30692 -81.50351 34458 ft 428 kts 327°
2026-05-06 20:57 27.33292 -81.51991 34742 ft 429 kts 329°
2026-05-06 20:57 27.36004 -81.53299 35021 ft 430 kts 333°
2026-05-06 20:58 27.38773 -81.54574 35266 ft 430 kts 333°
2026-05-06 20:58 27.41542 -81.55841 35529 ft 429 kts 333°
2026-05-06 20:58 27.44315 -81.57107 35790 ft 429 kts 333°
2026-05-06 20:58 27.47083 -81.58369 36017 ft 428 kts 333°
2026-05-06 20:59 27.49854 -81.59633 36060 ft 430 kts 333°
2026-05-06 20:59 27.55378 -81.62154 36051 ft 428 kts 333°
2026-05-06 21:00 27.60894 -81.64674 36054 ft 428 kts 333°
2026-05-06 21:00 27.66416 -81.67200 36057 ft 429 kts 333°
2026-05-06 21:01 27.71945 -81.69732 36057 ft 429 kts 333°
2026-05-06 21:01 27.77483 -81.72270 36056 ft 429 kts 333°
2026-05-06 21:02 27.82975 -81.74791 36074 ft 429 kts 333°
2026-05-06 21:02 27.88486 -81.77323 36054 ft 426 kts 333°
2026-05-06 21:03 27.93981 -81.79850 36053 ft 427 kts 333°
2026-05-06 21:03 27.99482 -81.82383 36060 ft 427 kts 333°
2026-05-06 21:04 28.04985 -81.84920 36063 ft 427 kts 333°
2026-05-06 21:04 28.10483 -81.87456 36058 ft 427 kts 333°
2026-05-06 21:05 28.15977 -81.89994 36055 ft 425 kts 332°
2026-05-06 21:05 28.18549 -81.91550 36041 ft 415 kts 320°
2026-05-06 21:05 28.20926 -81.93433 36044 ft 418 kts 322°
2026-05-06 21:06 28.25711 -81.97158 36059 ft 418 kts 321°
2026-05-06 21:06 28.30453 -82.00902 36050 ft 417 kts 321°
2026-05-06 21:07 28.35222 -82.04679 36059 ft 418 kts 321°
2026-05-06 21:07 28.39992 -82.08463 36057 ft 418 kts 321°
2026-05-06 21:08 28.44753 -82.12242 36064 ft 417 kts 321°
2026-05-06 21:08 28.49497 -82.16013 36051 ft 416 kts 321°
2026-05-06 21:09 28.53440 -82.19151 36051 ft 416 kts 321°
2026-05-06 21:09 28.58182 -82.22929 36056 ft 416 kts 321°
2026-05-06 21:10 28.62920 -82.26708 36059 ft 416 kts 321°
2026-05-06 21:10 28.67660 -82.30493 36064 ft 416 kts 321°
2026-05-06 21:11 28.72399 -82.34282 36064 ft 416 kts 321°
2026-05-06 21:11 28.77133 -82.38070 36069 ft 414 kts 320°
2026-05-06 21:12 28.81817 -82.41824 36059 ft 414 kts 320°
2026-05-06 21:12 28.86538 -82.45610 36055 ft 415 kts 320°
2026-05-06 21:13 28.91256 -82.49399 36052 ft 415 kts 320°
2026-05-06 21:13 28.95988 -82.53203 36091 ft 415 kts 320°
2026-05-06 21:14 29.00707 -82.57001 36081 ft 415 kts 320°
2026-05-06 21:14 29.05424 -82.60803 36096 ft 415 kts 320°
2026-05-06 21:15 29.10127 -82.64596 36072 ft 413 kts 320°
2026-05-06 21:15 29.14800 -82.68370 36064 ft 414 kts 320°
2026-05-06 21:16 29.19530 -82.72195 36060 ft 414 kts 320°
2026-05-06 21:16 29.24197 -82.75972 36058 ft 414 kts 320°
2026-05-06 21:17 29.28901 -82.79784 36059 ft 414 kts 320°
2026-05-06 21:17 29.33611 -82.83606 36059 ft 414 kts 320°
2026-05-06 21:18 29.38314 -82.87426 36061 ft 413 kts 319°
2026-05-06 21:18 29.43005 -82.91240 36063 ft 413 kts 319°
2026-05-06 21:19 29.47697 -82.95058 36060 ft 413 kts 319°
2026-05-06 21:19 29.52507 -82.98623 36043 ft 421 kts 331°
2026-05-06 21:20 29.57928 -83.01231 36055 ft 422 kts 330°
2026-05-06 21:20 29.63359 -83.03840 36073 ft 423 kts 331°
2026-05-06 21:21 29.68798 -83.06436 36076 ft 423 kts 330°
2026-05-06 21:21 29.74231 -83.09030 36073 ft 423 kts 330°
2026-05-06 21:22 29.79670 -83.11630 36069 ft 423 kts 330°
2026-05-06 21:22 29.85069 -83.14214 36067 ft 423 kts 330°
2026-05-06 21:23 29.90502 -83.16817 36065 ft 423 kts 330°
2026-05-06 21:23 29.95953 -83.19432 36080 ft 424 kts 330°
2026-05-06 21:24 30.01394 -83.22045 36062 ft 424 kts 330°
2026-05-06 21:24 30.06836 -83.24662 36063 ft 424 kts 330°
2026-05-06 21:25 30.12283 -83.27284 36064 ft 424 kts 330°
2026-05-06 21:25 30.17725 -83.29907 36065 ft 424 kts 330°
2026-05-06 21:26 30.23130 -83.32514 36085 ft 423 kts 329°
2026-05-06 21:26 30.28573 -83.35142 36069 ft 424 kts 330°
2026-05-06 21:27 30.34018 -83.37773 36060 ft 424 kts 330°
2026-05-06 21:27 30.39463 -83.40407 36062 ft 424 kts 330°
2026-05-06 21:28 30.44912 -83.43047 36066 ft 424 kts 329°
2026-05-06 21:28 30.50356 -83.45687 36063 ft 424 kts 330°
2026-05-06 21:29 30.55804 -83.48333 36057 ft 424 kts 330°
2026-05-06 21:29 30.61253 -83.50982 36063 ft 424 kts 330°
2026-05-06 21:30 30.66697 -83.53632 36055 ft 424 kts 329°
2026-05-06 21:30 30.72158 -83.56293 36064 ft 426 kts 329°
2026-05-06 21:31 30.77624 -83.58961 36061 ft 426 kts 329°
2026-05-06 21:31 30.83058 -83.61615 36076 ft 427 kts 329°
2026-05-06 21:32 30.88535 -83.64295 36059 ft 427 kts 329°
2026-05-06 21:32 30.96769 -83.68329 36042 ft 428 kts 329°
2026-05-06 21:33 31.02251 -83.71019 36036 ft 428 kts 329°
2026-05-06 21:33 31.07739 -83.73716 36025 ft 428 kts 329°
2026-05-06 21:34 31.13226 -83.76414 36038 ft 428 kts 329°
2026-05-06 21:34 31.18716 -83.79118 36039 ft 428 kts 329°
2026-05-06 21:35 31.24205 -83.81826 36046 ft 428 kts 329°
2026-05-06 21:35 31.29661 -83.84520 36048 ft 428 kts 329°
2026-05-06 21:36 31.35150 -83.87234 36049 ft 429 kts 329°
2026-05-06 21:36 31.40637 -83.89950 36073 ft 425 kts 329°
2026-05-06 21:37 31.46071 -83.92643 36056 ft 426 kts 329°
2026-05-06 21:37 31.51541 -83.95338 36046 ft 428 kts 332°
2026-05-06 21:38 31.54479 -83.96180 36053 ft 439 kts 341°
2026-05-06 21:38 31.57484 -83.96854 36040 ft 439 kts 340°
2026-05-06 21:38 31.63457 -83.98208 36045 ft 440 kts 340°
2026-05-06 21:39 31.69464 -83.99546 36053 ft 438 kts 340°
2026-05-06 21:39 31.75436 -84.00874 36046 ft 437 kts 340°
2026-05-06 21:40 31.81405 -84.02204 36046 ft 437 kts 340°
2026-05-06 21:40 31.87370 -84.03535 36038 ft 437 kts 340°
2026-05-06 21:41 31.93351 -84.04871 36011 ft 437 kts 340°
2026-05-06 21:41 31.99308 -84.06203 35989 ft 434 kts 339°
2026-05-06 21:42 32.05203 -84.07523 35986 ft 434 kts 339°
2026-05-06 21:42 32.11140 -84.08855 35981 ft 434 kts 339°
2026-05-06 21:43 32.17068 -84.10186 35980 ft 434 kts 339°
2026-05-06 21:43 32.23003 -84.11520 36011 ft 434 kts 339°
2026-05-06 21:44 32.28946 -84.12858 35993 ft 434 kts 339°
2026-05-06 21:44 32.34884 -84.14197 36012 ft 434 kts 339°
2026-05-06 21:45 32.40823 -84.15538 36008 ft 435 kts 339°
2026-05-06 21:45 32.46765 -84.16881 36014 ft 435 kts 339°
2026-05-06 21:46 32.52710 -84.18227 36009 ft 435 kts 339°
2026-05-06 21:46 32.58623 -84.19567 36008 ft 435 kts 339°
2026-05-06 21:47 32.64565 -84.20916 36009 ft 435 kts 339°
2026-05-06 21:47 32.70513 -84.22267 36011 ft 435 kts 339°
2026-05-06 21:48 32.76467 -84.23623 36046 ft 435 kts 339°
2026-05-06 21:48 32.82407 -84.24976 36018 ft 436 kts 339°
2026-05-06 21:49 32.88339 -84.26330 36023 ft 436 kts 339°
2026-05-06 21:49 32.94302 -84.27692 36023 ft 436 kts 339°
2026-05-06 21:50 33.00264 -84.29056 36005 ft 436 kts 339°
2026-05-06 21:50 33.06249 -84.30428 36009 ft 439 kts 339°
2026-05-06 21:51 33.12236 -84.31802 36007 ft 439 kts 339°
2026-05-06 21:51 33.18236 -84.33180 36012 ft 438 kts 339°
2026-05-06 21:52 33.24227 -84.34559 36013 ft 438 kts 339°
2026-05-06 21:52 33.30212 -84.35938 36022 ft 439 kts 339°
2026-05-06 21:53 33.36201 -84.37320 36020 ft 438 kts 339°
2026-05-06 21:53 33.42188 -84.38704 35994 ft 438 kts 339°
2026-05-06 21:54 33.48184 -84.40091 35993 ft 438 kts 339°
2026-05-06 21:54 33.54177 -84.41479 35987 ft 438 kts 339°
2026-05-06 21:55 33.60176 -84.42870 35981 ft 440 kts 338°
2026-05-06 21:55 33.66178 -84.44208 35997 ft 442 kts 339°
2026-05-06 21:56 33.72218 -84.45536 35975 ft 441 kts 339°
2026-05-06 21:56 33.78268 -84.46870 35962 ft 441 kts 339°
2026-05-06 21:57 33.84307 -84.48204 36001 ft 441 kts 338°
2026-05-06 21:57 33.90332 -84.49536 35958 ft 440 kts 338°
2026-05-06 21:58 33.96348 -84.50868 35958 ft 440 kts 338°
2026-05-06 21:58 34.02365 -84.52188 35988 ft 442 kts 340°
2026-05-06 21:59 34.08593 -84.52774 35994 ft 449 kts 343°
2026-05-06 21:59 34.13818 -84.53303 35990 ft 451 kts 343°
2026-05-06 22:00 34.20045 -84.53950 35985 ft 452 kts 343°
2026-05-06 22:00 34.26306 -84.54610 35982 ft 451 kts 343°
2026-05-06 22:01 34.32563 -84.55271 35979 ft 451 kts 343°
2026-05-06 22:01 34.38828 -84.55935 35984 ft 452 kts 343°
2026-05-06 22:02 34.45095 -84.56599 35984 ft 452 kts 343°
2026-05-06 22:02 34.51368 -84.57266 35959 ft 452 kts 343°
2026-05-06 22:03 34.57632 -84.57932 35971 ft 452 kts 343°
2026-05-06 22:03 34.63898 -84.58599 35982 ft 453 kts 342°
2026-05-06 22:04 34.70185 -84.59270 35976 ft 453 kts 342°
2026-05-06 22:04 34.76433 -84.59937 35972 ft 454 kts 342°
2026-05-06 22:05 34.82720 -84.60610 35960 ft 454 kts 342°
2026-05-06 22:05 34.89018 -84.61287 35989 ft 456 kts 342°
2026-05-06 22:06 34.95383 -84.61969 35954 ft 461 kts 342°
2026-05-06 22:06 35.01790 -84.62657 35936 ft 462 kts 342°
2026-05-06 22:07 35.08182 -84.63345 35939 ft 462 kts 342°
2026-05-06 22:07 35.14579 -84.64035 35968 ft 461 kts 341°
2026-05-06 22:08 35.20971 -84.64726 35936 ft 460 kts 341°
2026-05-06 22:08 35.27354 -84.65416 35941 ft 461 kts 341°
2026-05-06 22:09 35.33709 -84.66105 35972 ft 461 kts 341°
2026-05-06 22:09 35.40112 -84.66799 36023 ft 461 kts 340°
2026-05-06 22:10 35.46521 -84.67497 35966 ft 462 kts 340°
2026-05-06 22:10 35.52926 -84.68194 35963 ft 462 kts 340°
2026-05-06 22:11 35.59329 -84.68892 35953 ft 461 kts 340°
2026-05-06 22:11 35.65726 -84.69591 35973 ft 462 kts 340°
2026-05-06 22:12 35.72120 -84.70290 35939 ft 460 kts 340°
2026-05-06 22:12 35.78461 -84.70985 35935 ft 460 kts 340°
2026-05-06 22:13 35.84840 -84.71685 35960 ft 460 kts 340°
2026-05-06 22:13 35.91230 -84.72387 35972 ft 461 kts 340°
2026-05-06 22:14 35.97618 -84.73091 35956 ft 460 kts 340°
2026-05-06 22:14 36.03999 -84.73797 35939 ft 460 kts 340°
2026-05-06 22:15 36.10381 -84.74501 35960 ft 461 kts 340°
2026-05-06 22:15 36.16766 -84.75207 35980 ft 461 kts 340°
2026-05-06 22:16 36.23171 -84.75916 35969 ft 462 kts 340°
2026-05-06 22:16 36.29537 -84.76622 35969 ft 462 kts 340°
2026-05-06 22:17 36.35960 -84.77336 35977 ft 462 kts 340°
2026-05-06 22:17 36.42386 -84.77973 35985 ft 471 kts 345°
2026-05-06 22:18 36.48983 -84.77828 35966 ft 475 kts 346°
2026-05-06 22:18 36.55588 -84.77651 35956 ft 475 kts 346°
2026-05-06 22:19 36.62204 -84.77457 36005 ft 475 kts 346°
2026-05-06 22:19 36.68753 -84.77266 36002 ft 471 kts 345°
2026-05-06 22:20 36.75294 -84.77076 36021 ft 472 kts 345°
2026-05-06 22:20 36.81863 -84.76883 35997 ft 472 kts 345°
2026-05-06 22:21 36.88426 -84.76692 36056 ft 471 kts 345°
2026-05-06 22:21 36.94972 -84.76499 35998 ft 469 kts 345°
2026-05-06 22:22 37.01494 -84.76308 35972 ft 470 kts 345°
2026-05-06 22:22 37.08031 -84.76117 35979 ft 470 kts 345°
2026-05-06 22:23 37.14564 -84.75928 36024 ft 469 kts 345°
2026-05-06 22:23 37.21075 -84.75732 35960 ft 467 kts 345°
2026-05-06 22:24 37.27551 -84.75541 35986 ft 469 kts 345°
2026-05-06 22:24 37.34076 -84.75339 35991 ft 469 kts 345°
2026-05-06 22:25 37.40601 -84.75126 35995 ft 469 kts 344°
2026-05-06 22:25 37.47126 -84.74915 35986 ft 469 kts 344°
2026-05-06 22:26 37.53665 -84.74703 36005 ft 470 kts 345°
2026-05-06 22:26 37.60203 -84.74489 36084 ft 470 kts 344°
2026-05-06 22:27 37.66733 -84.74276 35996 ft 468 kts 344°
2026-05-06 22:27 37.73257 -84.74070 36002 ft 469 kts 344°
2026-05-06 22:28 37.79789 -84.73868 35995 ft 469 kts 344°
2026-05-06 22:28 37.86323 -84.73666 36018 ft 470 kts 344°
2026-05-06 22:29 37.92816 -84.73464 35978 ft 470 kts 344°
2026-05-06 22:29 37.99369 -84.73260 35979 ft 470 kts 344°
2026-05-06 22:30 38.05902 -84.73057 35981 ft 470 kts 344°
2026-05-06 22:30 38.12463 -84.72853 35975 ft 473 kts 344°
2026-05-06 22:31 38.19049 -84.72647 35981 ft 474 kts 344°
2026-05-06 22:31 38.25604 -84.72442 35981 ft 474 kts 344°
2026-05-06 22:32 38.32194 -84.72235 35984 ft 474 kts 344°
2026-05-06 22:32 38.38787 -84.72028 35993 ft 474 kts 344°
2026-05-06 22:33 38.45366 -84.71902 35980 ft 460 kts 337°
2026-05-06 22:33 38.48349 -84.72679 35993 ft 423 kts 324°
2026-05-06 22:33 38.51161 -84.73823 35984 ft 425 kts 324°
2026-05-06 22:34 38.56736 -84.76252 36018 ft 422 kts 322°
2026-05-06 22:34 38.62220 -84.78758 36009 ft 421 kts 322°
2026-05-06 22:35 38.67729 -84.81308 35988 ft 421 kts 322°
2026-05-06 22:35 38.73232 -84.83866 36001 ft 421 kts 322°
2026-05-06 22:36 38.78718 -84.86419 36084 ft 420 kts 321°
2026-05-06 22:36 38.84180 -84.88963 36022 ft 415 kts 321°
2026-05-06 22:37 38.89610 -84.91501 36011 ft 415 kts 321°
2026-05-06 22:37 38.95046 -84.94043 36011 ft 416 kts 321°
2026-05-06 22:38 39.00487 -84.96589 36019 ft 416 kts 321°
2026-05-06 22:38 39.05921 -84.99137 36011 ft 414 kts 320°
2026-05-06 22:39 39.11325 -85.01677 36014 ft 414 kts 320°
2026-05-06 22:39 39.16733 -85.04222 36014 ft 414 kts 320°
2026-05-06 22:40 39.22150 -85.06774 36016 ft 415 kts 320°
2026-05-06 22:40 39.27579 -85.09337 36050 ft 415 kts 320°
2026-05-06 22:41 39.35674 -85.13165 36019 ft 415 kts 320°
2026-05-06 22:42 39.41093 -85.15732 36025 ft 415 kts 320°
2026-05-06 22:42 39.46511 -85.18304 36021 ft 415 kts 320°
2026-05-06 22:43 39.51930 -85.20879 36023 ft 414 kts 320°
2026-05-06 22:43 39.57337 -85.23454 36018 ft 414 kts 320°
2026-05-06 22:44 39.62749 -85.26035 36026 ft 415 kts 320°
2026-05-06 22:44 39.68167 -85.28622 36036 ft 414 kts 320°
2026-05-06 22:45 39.73577 -85.31211 36052 ft 414 kts 320°
2026-05-06 22:45 39.78944 -85.33784 36018 ft 413 kts 320°
2026-05-06 22:46 39.84344 -85.36376 36019 ft 414 kts 320°
2026-05-06 22:46 39.89745 -85.38973 36018 ft 414 kts 320°
2026-05-06 22:47 39.95141 -85.41572 36065 ft 414 kts 320°
2026-05-06 22:47 40.00539 -85.44177 36034 ft 415 kts 320°
2026-05-06 22:48 40.05915 -85.46775 36019 ft 415 kts 320°
2026-05-06 22:48 40.11334 -85.49398 36017 ft 415 kts 320°
2026-05-06 22:49 40.15870 -85.51598 36023 ft 415 kts 320°
2026-05-06 22:49 40.21287 -85.54229 36023 ft 415 kts 320°
2026-05-06 22:50 40.26698 -85.56861 36016 ft 415 kts 320°
2026-05-06 22:50 40.32101 -85.59494 36012 ft 415 kts 320°
2026-05-06 22:51 40.37517 -85.62138 36018 ft 415 kts 320°
2026-05-06 22:51 40.42942 -85.64790 36033 ft 418 kts 320°
2026-05-06 22:52 40.48354 -85.67437 36021 ft 419 kts 321°
2026-05-06 22:52 40.54064 -85.69655 36025 ft 429 kts 324°
2026-05-06 22:53 40.59775 -85.71886 36018 ft 428 kts 324°
2026-05-06 22:53 40.65468 -85.74129 36018 ft 428 kts 324°
2026-05-06 22:54 40.71175 -85.76381 36014 ft 428 kts 324°
2026-05-06 22:54 40.76821 -85.78734 36010 ft 417 kts 320°
2026-05-06 22:55 40.82289 -85.81388 36005 ft 419 kts 321°
2026-05-06 22:55 40.87785 -85.84016 36014 ft 421 kts 321°
2026-05-06 22:56 40.93297 -85.86651 36006 ft 421 kts 321°
2026-05-06 22:56 40.98768 -85.89270 36006 ft 421 kts 321°
2026-05-06 22:57 41.04278 -85.91914 36007 ft 421 kts 321°
2026-05-06 22:57 41.09802 -85.94568 36015 ft 424 kts 322°
2026-05-06 22:58 41.15351 -85.97239 36000 ft 425 kts 322°
2026-05-06 22:58 41.20909 -85.99919 35999 ft 425 kts 322°
2026-05-06 22:58 41.23504 -86.01530 35985 ft 395 kts 309°
2026-05-06 22:59 41.25487 -86.03807 36004 ft 362 kts 295°
2026-05-06 22:59 41.26875 -86.06500 36005 ft 349 kts 289°
2026-05-06 22:59 41.28021 -86.09310 35993 ft 339 kts 281°
2026-05-06 23:00 41.29377 -86.15262 35997 ft 337 kts 276°
2026-05-06 23:00 41.30340 -86.21339 36015 ft 338 kts 274°
2026-05-06 23:00 41.30749 -86.24412 35892 ft 335 kts 273°
2026-05-06 23:01 41.31132 -86.27447 35317 ft 331 kts 272°
2026-05-06 23:01 41.31496 -86.30446 34815 ft 326 kts 272°
2026-05-06 23:01 41.31847 -86.33405 34322 ft 322 kts 272°
2026-05-06 23:01 41.32188 -86.36326 33775 ft 317 kts 271°
2026-05-06 23:02 41.32523 -86.39214 33191 ft 314 kts 271°
2026-05-06 23:02 41.32853 -86.42061 32646 ft 309 kts 271°
2026-05-06 23:02 41.33176 -86.44875 32130 ft 311 kts 271°
2026-05-06 23:02 41.33508 -86.47765 31582 ft 319 kts 271°
2026-05-06 23:03 41.33845 -86.50705 31017 ft 323 kts 271°
2026-05-06 23:03 41.34256 -86.53658 30415 ft 331 kts 278°
2026-05-06 23:03 41.35210 -86.56492 29708 ft 344 kts 284°
2026-05-06 23:03 41.36280 -86.59418 29051 ft 352 kts 285°
2026-05-06 23:04 41.37379 -86.62370 28371 ft 359 kts 286°
2026-05-06 23:04 41.38498 -86.65329 27643 ft 366 kts 288°
2026-05-06 23:04 41.39974 -86.68200 26468 ft 390 kts 302°
2026-05-06 23:04 41.42228 -86.70471 25676 ft 427 kts 321°
2026-05-06 23:05 41.44839 -86.72229 26469 ft 409 kts 320°
2026-05-06 23:05 41.47422 -86.73969 25219 ft 426 kts 321°
2026-05-06 23:05 41.50058 -86.75764 24681 ft 421 kts 322°
2026-05-06 23:05 41.52723 -86.77434 23331 ft 441 kts 331°
2026-05-06 23:06 41.55847 -86.78258 21924 ft 465 kts 346°
2026-05-06 23:06 41.59034 -86.78622 20732 ft 454 kts 346°
2026-05-06 23:06 41.62165 -86.78964 19660 ft 449 kts 347°
2026-05-06 23:06 41.65237 -86.79299 18617 ft 438 kts 346°
2026-05-06 23:07 41.68250 -86.79688 17461 ft 431 kts 346°
2026-05-06 23:07 41.71208 -86.80059 16321 ft 423 kts 347°
2026-05-06 23:07 41.74123 -86.80421 15264 ft 416 kts 347°
2026-05-06 23:07 41.76973 -86.80809 14210 ft 405 kts 344°
2026-05-06 23:08 41.79726 -86.81412 13144 ft 397 kts 344°
2026-05-06 23:08 41.82428 -86.81998 12099 ft 390 kts 345°
2026-05-06 23:08 41.85071 -86.82655 11115 ft 378 kts 338°
2026-05-06 23:08 41.87321 -86.84166 10346 ft 359 kts 319°
2026-05-06 23:09 41.89137 -86.86052 10281 ft 330 kts 318°
2026-05-06 23:09 41.90863 -86.87885 10289 ft 303 kts 317°
2026-05-06 23:09 41.92431 -86.89593 10283 ft 278 kts 316°
2026-05-06 23:09 41.93721 -86.91335 10252 ft 249 kts 297°
2026-05-06 23:10 41.94267 -86.93385 10226 ft 223 kts 276°
2026-05-06 23:10 41.94482 -86.95451 10245 ft 230 kts 276°
2026-05-06 23:10 41.94682 -86.97647 10259 ft 241 kts 275°
2026-05-06 23:10 41.94855 -86.99919 10280 ft 247 kts 274°
2026-05-06 23:11 41.95009 -87.02219 10282 ft 248 kts 274°
2026-05-06 23:11 41.95151 -87.04527 10284 ft 248 kts 273°
2026-05-06 23:11 41.95286 -87.06839 10289 ft 248 kts 273°
2026-05-06 23:11 41.95415 -87.09152 10289 ft 248 kts 273°
2026-05-06 23:12 41.95540 -87.11461 10285 ft 248 kts 273°
2026-05-06 23:12 41.95663 -87.13772 10288 ft 248 kts 273°
2026-05-06 23:12 41.95784 -87.16080 10244 ft 248 kts 273°
2026-05-06 23:12 41.95904 -87.18359 10147 ft 248 kts 273°
2026-05-06 23:13 41.96025 -87.20699 9988 ft 248 kts 273°
2026-05-06 23:13 41.96143 -87.22984 9710 ft 249 kts 273°
2026-05-06 23:13 41.96262 -87.25315 9405 ft 250 kts 273°
2026-05-06 23:13 41.96381 -87.27635 9114 ft 249 kts 273°
2026-05-06 23:14 41.96493 -87.29943 8975 ft 246 kts 271°
2026-05-06 23:14 41.96510 -87.32247 8670 ft 248 kts 270°
2026-05-06 23:14 41.96524 -87.34573 8297 ft 249 kts 271°
2026-05-06 23:14 41.96540 -87.36889 8020 ft 246 kts 271°
2026-05-06 23:15 41.96544 -87.39172 7706 ft 244 kts 270°
2026-05-06 23:15 41.96548 -87.41458 7366 ft 244 kts 270°
2026-05-06 23:15 41.96553 -87.43732 7075 ft 242 kts 271°
2026-05-06 23:15 41.96559 -87.45982 6765 ft 241 kts 271°
2026-05-06 23:16 41.96580 -87.48237 6430 ft 241 kts 271°
2026-05-06 23:16 41.96593 -87.50483 6116 ft 240 kts 271°
2026-05-06 23:16 41.96602 -87.52706 5840 ft 237 kts 271°
2026-05-06 23:16 41.96607 -87.54918 5485 ft 237 kts 271°
2026-05-06 23:17 41.96610 -87.57096 5177 ft 234 kts 271°
2026-05-06 23:17 41.96610 -87.59254 4903 ft 228 kts 271°
2026-05-06 23:17 41.96610 -87.61364 4612 ft 224 kts 271°
2026-05-06 23:17 41.96609 -87.63426 4369 ft 218 kts 271°
2026-05-06 23:18 41.96608 -87.65453 4118 ft 215 kts 271°
2026-05-06 23:18 41.96606 -87.67440 3854 ft 211 kts 271°
2026-05-06 23:18 41.96605 -87.69399 3594 ft 208 kts 271°
2026-05-06 23:18 41.96602 -87.71322 3324 ft 204 kts 271°
2026-05-06 23:19 41.96599 -87.73219 3054 ft 201 kts 271°
2026-05-06 23:19 41.96597 -87.75081 2800 ft 198 kts 271°
2026-05-06 23:19 41.96595 -87.76876 2549 ft 182 kts 271°
2026-05-06 23:19 41.96593 -87.78478 2309 ft 162 kts 271°
2026-05-06 23:20 41.96591 -87.79887 2124 ft 139 kts 272°
2026-05-06 23:20 41.96590 -87.81098 1923 ft 124 kts 272°
2026-05-06 23:20 41.96588 -87.82243 1753 ft 124 kts 272°
2026-05-06 23:20 41.96581 -87.83394 1532 ft 123 kts 271°
2026-05-06 23:21 41.96568 -87.84533 1412 ft 123 kts 271°
2026-05-06 23:21 41.96577 -87.85686 1269 ft 124 kts 271°
2026-05-06 23:21 41.96570 -87.86862 1080 ft 128 kts 272°
2026-05-06 23:21 41.96575 -87.88031 893 ft 124 kts 271°
2026-05-06 23:22 41.96576 -87.89223 702 ft 128 kts 271°
2026-05-06 23:22 41.96575 -87.90288 671 ft 90 kts 270°
2026-05-06 23:22 41.96575 -87.90883 671 ft 50 kts 270°
2026-05-06 23:22 41.96609 -87.91347 669 ft 47 kts 289°
2026-05-06 23:23 41.96694 -87.91511 670 ft 9 kts
2026-05-06 23:23 41.96738 -87.91445 672 ft 13 kts 86°
2026-05-06 23:23 41.96738 -87.91299 672 ft 17 kts 89°
2026-05-06 23:23 41.96738 -87.91119 671 ft 22 kts 90°
2026-05-06 23:24 41.96738 -87.90889 671 ft 28 kts 89°
2026-05-06 23:24 41.96739 -87.90606 671 ft 32 kts 90°
2026-05-06 23:24 41.96740 -87.90318 671 ft 30 kts 90°
2026-05-06 23:24 41.96740 -87.90026 671 ft 32 kts 90°
2026-05-06 23:25 41.96740 -87.89720 672 ft 32 kts 90°
2026-05-06 23:25 41.96745 -87.89460 672 ft 19 kts 64°
2026-05-06 23:25 41.96847 -87.89436 673 ft 17 kts 359°
2026-05-06 23:25 41.96984 -87.89437 672 ft 24 kts 359°
2026-05-06 23:26 41.97159 -87.89439 671 ft 21 kts 359°
2026-05-06 23:26 41.97209 -87.89518 671 ft 12 kts 304°
2026-05-06 23:26 41.97234 -87.89616 671 ft 13 kts 243°
2026-05-06 23:26 41.97193 -87.89729 671 ft 14 kts 243°
2026-05-06 23:27 41.97147 -87.89857 671 ft 16 kts 253°
2026-05-06 23:27 41.97135 -87.90014 671 ft 18 kts 271°
2026-05-06 23:27 41.97180 -87.90135 671 ft 14 kts 349°
2026-05-06 23:27 41.97281 -87.90161 671 ft 16 kts
2026-05-06 23:28 41.97371 -87.90148 671 ft 4 kts 58°
2026-05-06 23:28 41.97372 -87.90111 671 ft 5 kts 90°
2026-05-06 23:28 41.97372 -87.90100 671 ft 0 kts 90°